This demonstration page uses our WeatherBlox Daily Observations layout. Learn more.

38.88101, -77.10428

Hourly Observations for January 28, 2016

Temp ( °F °C ) Dew Point ( °F °C ) Humidity (%) Winds ( mph kmh ) Pressure ( in mb ) Visibility ( mi km ) Precip ( " mm )
12:52 am 00:52 Partly Cloudy 30 -1 21 -6 69 69 Calm 30.18 1022 10 16.09344 0 0
1:52 am 01:52 Partly Cloudy 28 -2 23 -5 80 80 SSW 3 6 30.15 1021 10 16.09344 0 0
2:52 am 02:52 Partly Cloudy 28 -2 21 -6 74 74 Calm 30.15 1021 10 16.09344 0 0
3:52 am 03:52 Mostly Cloudy 25 -4 21 -6 86 86 Calm 30.09 1019 10 16.09344 0 0
4:52 am 04:52 Clear 27 -3 21 -6 80 80 Calm 30.09 1019 10 16.09344 0 0
5:52 am 05:52 Partly Cloudy 27 -3 21 -6 80 80 Calm 30.06 1018 10 16.09344 0 0
6:52 am 06:52 Partly Cloudy 27 -3 21 -6 80 80 S 3 6 30.06 1018 10 16.09344 0 0
7:52 am 07:52 Partly Cloudy 27 -3 23 -5 86 86 S 3 6 30.06 1018 9 14.484096 0 0
8:52 am 08:52 Mostly Cloudy 28 -2 25 -4 86 86 Calm 30.03 1017 10 16.09344 0 0
9:52 am 09:52 Partly Cloudy 30 -1 23 -5 75 75 S 5 7 30.03 1017 10 16.09344 0 0
10:52 am 10:52 Partly Cloudy 34 1 25 -4 70 70 S 7 11 30.03 1017 10 16.09344 0 0
11:52 am 11:52 Mostly Cloudy 37 3 25 -4 60 60 S 8 13 29.97 1015 10 16.09344 0 0
12:52 pm 12:52 Mostly Cloudy 39 4 25 -4 56 56 SSW 7 11 29.91 1013 10 16.09344 0 0
1:52 pm 13:52 Cloudy 39 4 27 -3 61 61 S 10 17 29.88 1012 10 16.09344 0 0
2:52 pm 14:52 Cloudy 39 4 27 -3 61 61 S 9 15 29.85 1011 10 16.09344 0 0
3:52 pm 15:52 Cloudy 39 4 27 -3 61 61 S 9 15 29.83 1010 10 16.09344 0 0
4:52 pm 16:52 Mostly Cloudy 39 4 27 -3 61 61 S 7 11 29.8 1009 10 16.09344 0 0
5:52 pm 17:52 Mostly Cloudy 37 3 27 -3 65 65 SSE 3 6 29.8 1009 10 16.09344 0 0
6:52 pm 18:52 Mostly Cloudy 37 3 27 -3 65 65 S 3 6 29.77 1008 10 16.09344 0 0
7:52 pm 19:52 Cloudy 37 3 27 -3 65 65 S 7 11 29.77 1008 10 16.09344 0 0
8:52 pm 20:52 Cloudy 36 2 27 -3 70 70 S 6 9 29.74 1007 10 16.09344 0 0
9:52 pm 21:52 Cloudy 37 3 27 -3 65 65 Calm 29.71 1006 10 16.09344 0 0
10:52 pm 22:52 Cloudy 36 2 27 -3 70 70 S 5 7 29.71 1006 10 16.09344 0 0
11:52 pm 23:52 Cloudy 36 2 27 -3 70 70 Calm 29.68 1005 10 16.09344 0 0

Powered by AerisWeather